Location: Bletchingley
(51.2333°N, 0.1000°W)
Time: 04:53:10
(UTC+00:00)

IGS 5A - Pass Details

Date: 18 September 2020
Orbit: 583 x 588 km, 97.6° (Epoch: 09 October)

Event Time Altitude Azimuth Distance (km) Brightness Sun altitude
Exits shadow 21:13:36 51° 307° (NW) 747 4.2 -27.3°
Drops below altitude 10° 21:16:57 10° 340° (NNW) 1,919 6.9 -27.7°
Sets 21:19:08 0° 344° (NNW) 2,824 7.8 -27.9°
